| time (UTC) | temp F | wind direction | speed MPH | gust MPH | rain 1hr in | rain 24hr in | rain mn in | humidity % | barometer mb |
| 20260903085011 | 66 | 243 | 9.0 | 11.0 | 0.00 | 0.00 | 0.00 | 59 | |
| 20260903084511 | 66 | 246 | 4.0 | 7.0 | 0.00 | 0.00 | 0.00 | 58 | |
| 20260903084011 | 66 | 241 | 9.0 | 13.0 | 0.00 | 0.00 | 0.00 | 57 | |
| 20260903083510 | 66 | 225 | 2.0 | 2.0 | 0.00 | 0.00 | 0.00 | 60 | |
| 20260903083010 | 68 | 244 | 4.0 | 4.0 | 0.00 | 0.00 | 0.00 | 59 | |
| 20260903082511 | 66 | 225 | 2.0 | 4.0 | 0.00 | 0.00 | 0.00 | 63 | |
| 20260903082012 | 64 | 204 | 4.0 | 7.0 | 0.00 | 0.00 | 0.00 | 66 | |
| 20260903081510 | 64 | 209 | 4.0 | 7.0 | 0.00 | 0.00 | 0.00 | 64 | |
| 20260903081012 | 64 | 251 | 4.0 | 7.0 | 0.00 | 0.00 | 0.00 | 62 | |
| 20260903080519 | 64 | 250 | 4.0 | 7.0 | 0.00 | 0.00 | 0.00 | 64 | |
| 20260903080011 | 64 | 239 | 4.0 | 7.0 | 0.00 | 0.00 | 0.00 | 63 | |
| 20260903075510 | 64 | 267 | 4.0 | 4.0 | 0.00 | 0.00 | 0.00 | 61 | |
| 20260903075010 | 64 | 257 | 4.0 | 4.0 | 0.00 | 0.00 | 0.00 | 61 | |
| 20260903074511 | 64 | 259 | 2.0 | 4.0 | 0.00 | 0.00 | 0.00 | 61 | |
| 20260903074010 | 64 | 270 | 4.0 | 7.0 | 0.00 | 0.00 | 0.00 | 63 | |
| 20260903073511 | 64 | 267 | 7.0 | 9.0 | 0.00 | 0.00 | 0.00 | 62 | |
| 20260903073011 | 64 | 256 | 4.0 | 7.0 | 0.00 | 0.00 | 0.00 | 65 | |
| 20260903072510 | 63 | 259 | 7.0 | 7.0 | 0.00 | 0.00 | 0.00 | 65 | |
| 20260903072018 | 63 | 262 | 4.0 | 7.0 | 0.00 | 0.00 | 0.00 | 67 | |
| 20260903071511 | 63 | 266 | 7.0 | 9.0 | 0.00 | 0.00 | 0.00 | 68 | |
| 20260903071011 | 63 | 267 | 7.0 | 7.0 | 0.00 | 0.00 | 0.00 | 70 | |
| 20260903070510 | 61 | 273 | 7.0 | 9.0 | 0.00 | 0.00 | 0.00 | 70 | |
| 20260903070011 | 61 | 274 | 7.0 | 9.0 | 0.00 | 0.00 | 0.00 | 70 | |
| 20260903065510 | 61 | 286 | 4.0 | 7.0 | 0.00 | 0.00 | 0.00 | 72 | |
| 20260903065011 | 59 | 283 | 7.0 | 9.0 | 0.00 | 0.00 | 0.00 | 73 | |
| 20260903064511 | 59 | 281 | 7.0 | 9.0 | 0.00 | 0.00 | 0.00 | 73 | |
| 20260903064010 | 59 | 273 | 9.0 | 11.0 | 0.00 | 0.00 | 0.00 | 71 | |
| 20260903063510 | 59 | 276 | 9.0 | 11.0 | 0.00 | 0.00 | 0.00 | 71 | |
| 20260903063010 | 59 | 270 | 9.0 | 11.0 | 0.00 | 0.00 | 0.00 | 68 | |
| 20260903062510 | 61 | 267 | 9.0 | 9.0 | 0.00 | 0.00 | 0.00 | 69 | |
| 20260903062011 | 61 | 272 | 7.0 | 7.0 | 0.00 | 0.00 | 0.00 | 68 | |
| 20260903061510 | 61 | 269 | 7.0 | 7.0 | 0.00 | 0.00 | 0.00 | 68 | |
| 20260903061010 | 61 | 269 | 7.0 | 7.0 | 0.00 | 0.00 | 0.00 | 67 | |
| 20260903060510 | 61 | 270 | 4.0 | 4.0 | 0.00 | 0.00 | 0.00 | 66 | |
| 20260903060010 | 61 | 272 | 4.0 | 4.0 | 0.00 | 0.00 | 0.00 | 66 | |
| 20260903055510 | 61 | 273 | 4.0 | 7.0 | 0.00 | 0.00 | 0.00 | 66 | |
| 20260903055010 | 61 | 277 | 4.0 | 4.0 | 0.00 | 0.00 | 0.00 | 66 | |
| 20260903054510 | 61 | 278 | 4.0 | 4.0 | 0.00 | 0.00 | 0.00 | 66 | |
| 20260903054011 | 61 | 280 | 4.0 | 4.0 | 0.00 | 0.00 | 0.00 | 66 | |
| 20260903053511 | 61 | 278 | 4.0 | 4.0 | 0.00 | 0.00 | 0.00 | 66 | |
| 20260903053010 | 61 | 276 | 4.0 | 4.0 | 0.00 | 0.00 | 0.00 | 67 | |
| 20260903052511 | 61 | 277 | 4.0 | 4.0 | 0.00 | 0.00 | 0.00 | 67 | |
| 20260903052012 | 61 | 280 | 4.0 | 7.0 | 0.00 | 0.00 | 0.00 | 68 | |
| 20260903051511 | 61 | 277 | 4.0 | 4.0 | 0.00 | 0.00 | 0.00 | 68 | |
| 20260903051009 | 59 | 281 | 4.0 | 4.0 | 0.00 | 0.00 | 0.00 | 71 | |
| 20260903050510 | 57 | 283 | 4.0 | 4.0 | 0.00 | 0.00 | 0.00 | 73 | |
| 20260903050010 | 57 | 286 | 4.0 | 7.0 | 0.00 | 0.00 | 0.00 | 73 | |
| 20260903045510 | 57 | 282 | 7.0 | 7.0 | 0.00 | 0.00 | 0.00 | 72 | |
| 20260903045010 | 57 | 287 | 4.0 | 4.0 | 0.00 | 0.00 | 0.00 | 72 | |
| 20260903044510 | 59 | 292 | 2.0 | 4.0 | 0.00 | 0.00 | 0.00 | 71 | |
| 20260903044010 | 59 | 293 | 4.0 | 4.0 | 0.00 | 0.00 | 0.00 | 71 | |
| 20260903043510 | 59 | 298 | 7.0 | 7.0 | 0.00 | 0.00 | 0.00 | 71 | |
| 20260903043011 | 59 | 299 | 7.0 | 9.0 | 0.00 | 0.00 | 0.00 | 71 | |
| 20260903042511 | 59 | 301 | 7.0 | 7.0 | 0.00 | 0.00 | 0.00 | 70 | |
| 20260903042010 | 59 | 300 | 9.0 | 9.0 | 0.00 | 0.00 | 0.00 | 69 | |
| 20260903041511 | 59 | 300 | 9.0 | 9.0 | 0.00 | 0.00 | 0.00 | 70 | |
| 20260903041010 | 59 | 302 | 9.0 | 11.0 | 0.00 | 0.00 | 0.00 | 71 | |
| 20260903040510 | 57 | 305 | 9.0 | 9.0 | 0.00 | 0.00 | 0.00 | 72 | |
| 20260903040010 | 59 | 302 | 9.0 | 9.0 | 0.00 | 0.00 | 0.00 | 71 | |
| 20260903035511 | 59 | 299 | 9.0 | 9.0 | 0.00 | 0.00 | 0.00 | 70 | |
| 20260903035010 | 59 | 302 | 9.0 | 9.0 | 0.00 | 0.00 | 0.00 | 70 | |
| 20260903034510 | 57 | 304 | 7.0 | 9.0 | 0.00 | 0.00 | 0.00 | 71 | |
| 20260903034011 | 59 | 301 | 7.0 | 7.0 | 0.00 | 0.00 | 0.00 | 71 | |
| 20260903033510 | 59 | 294 | 7.0 | 9.0 | 0.00 | 0.00 | 0.00 | 70 | |
| 20260903032011 | 59 | 289 | 9.0 | 9.0 | 0.00 | 0.00 | 0.00 | 68 | |
| 20260903031510 | 59 | 287 | 9.0 | 9.0 | 0.00 | 0.00 | 0.00 | 68 | |
| 20260903031009 | 59 | 290 | 9.0 | 9.0 | 0.00 | 0.00 | 0.00 | 69 | |
| 20260903030510 | 59 | 287 | 11.0 | 11.0 | 0.00 | 0.00 | 0.00 | 68 | |
| 20260903030010 | 59 | 285 | 9.0 | 9.0 | 0.00 | 0.00 | 0.00 | 69 | |
| 20260903025509 | 59 | 289 | 7.0 | 7.0 | 0.00 | 0.00 | 0.00 | 71 | |
| 20260903025010 | 59 | 290 | 7.0 | 7.0 | 0.00 | 0.00 | 0.00 | 71 | |
| 20260903024510 | 59 | 288 | 7.0 | 7.0 | 0.00 | 0.00 | 0.00 | 72 | |
| 20260903024009 | 59 | 295 | 7.0 | 7.0 | 0.00 | 0.00 | 0.00 | 72 | |
| 20260903023010 | 59 | 294 | 7.0 | 7.0 | 0.00 | 0.00 | 0.00 | 72 | |
| 20260903022511 | 59 | 293 | 7.0 | 7.0 | 0.00 | 0.00 | 0.00 | 73 | |
| 20260903022012 | 59 | 293 | 9.0 | 9.0 | 0.00 | 0.00 | 0.00 | 73 | |
| 20260903021511 | 57 | 295 | 7.0 | 9.0 | 0.00 | 0.00 | 0.00 | 73 | |
| 20260903021010 | 57 | 293 | 9.0 | 11.0 | 0.00 | 0.00 | 0.00 | 72 | |
| 20260903020511 | 57 | 291 | 9.0 | 11.0 | 0.00 | 0.00 | 0.00 | 72 | |
| 20260903020011 | 57 | 292 | 7.0 | 9.0 | 0.00 | 0.00 | 0.00 | 72 | |
| 20260903015010 | 59 | 298 | 7.0 | 7.0 | 0.00 | 0.00 | 0.00 | 73 | |
| 20260903014510 | 57 | 295 | 7.0 | 7.0 | 0.00 | 0.00 | 0.00 | 73 | |
| 20260903013511 | 59 | 292 | 9.0 | 9.0 | 0.00 | 0.00 | 0.00 | 71 | |
| 20260903013010 | 59 | 289 | 9.0 | 9.0 | 0.00 | 0.00 | 0.00 | 73 | |
| 20260903012510 | 59 | 296 | 7.0 | 9.0 | 0.00 | 0.00 | 0.00 | 72 | |
| 20260903012017 | 59 | 300 | 7.0 | 7.0 | 0.00 | 0.00 | 0.00 | 71 | |
| 20260903011510 | 59 | 298 | 7.0 | 7.0 | 0.00 | 0.00 | 0.00 | 73 | |
| 20260903011009 | 59 | 302 | 7.0 | 9.0 | 0.00 | 0.00 | 0.00 | 72 | |
| 20260903010011 | 59 | 302 | 7.0 | 9.0 | 0.00 | 0.00 | 0.00 | 71 | |
| 20260903005510 | 59 | 300 | 7.0 | 9.0 | 0.00 | 0.00 | 0.00 | 70 | |
| 20260903005010 | 59 | 298 | 9.0 | 9.0 | 0.00 | 0.00 | 0.00 | 72 | |
| 20260903004511 | 59 | 295 | 9.0 | 9.0 | 0.00 | 0.00 | 0.00 | 70 | |
| 20260903004010 | 59 | 296 | 7.0 | 9.0 | 0.00 | 0.00 | 0.00 | 70 | |
| 20260903003510 | 59 | 297 | 7.0 | 7.0 | 0.00 | 0.00 | 0.00 | 70 | |
| 20260903003004 | 59 | 300 | 7.0 | 7.0 | 0.00 | 0.00 | 0.00 | 68 | |
| 20260903002511 | 59 | 298 | 7.0 | 7.0 | 0.00 | 0.00 | 0.00 | 69 | |
| 20260903002013 | 59 | 292 | 7.0 | 7.0 | 0.00 | 0.00 | 0.00 | 69 | |
| 20260903001511 | 59 | 294 | 4.0 | 7.0 | 0.00 | 0.00 | 0.00 | 68 | |
| 20260903001010 | 59 | 298 | 7.0 | 7.0 | 0.00 | 0.00 | 0.00 | 68 | |
| 20260903000510 | 59 | 298 | 9.0 | 9.0 | 0.00 | 0.00 | 0.00 | 68 | |
| 20260903000011 | 59 | 296 | 9.0 | 9.0 | 0.00 | 0.00 | 0.00 | 68 | |
| 20260902235510 | 59 | 295 | 9.0 | 9.0 | 0.00 | 0.00 | 0.00 | 68 | |
| 20260902235010 | 59 | 293 | 9.0 | 9.0 | 0.00 | 0.00 | 0.00 | 68 | |
| 20260902234510 | 61 | 298 | 7.0 | 7.0 | 0.00 | 0.00 | 0.00 | 67 | |
| 20260902234009 | 61 | 300 | 7.0 | 7.0 | 0.00 | 0.00 | 0.00 | 67 | |
| 20260902233510 | 61 | 300 | 7.0 | 9.0 | 0.00 | 0.00 | 0.00 | 67 | |
| 20260902233011 | 59 | 303 | 7.0 | 9.0 | 0.00 | 0.00 | 0.00 | 68 | |
| 20260902232510 | 61 | 304 | 9.0 | 9.0 | 0.00 | 0.00 | 0.00 | 67 | |
| 20260902232011 | 61 | 303 | 9.0 | 9.0 | 0.00 | 0.00 | 0.00 | 67 | |
| 20260902231510 | 61 | 293 | 7.0 | 9.0 | 0.00 | 0.00 | 0.00 | 67 | |
| 20260902231010 | 61 | 305 | 7.0 | 9.0 | 0.00 | 0.00 | 0.00 | 66 | |
| 20260902230010 | 61 | 311 | 7.0 | 9.0 | 0.00 | 0.00 | 0.00 | 65 | |
| 20260902225511 | 61 | 315 | 9.0 | 9.0 | 0.00 | 0.00 | 0.00 | 64 | |
| 20260902225010 | 61 | 318 | 7.0 | 9.0 | 0.00 | 0.00 | 0.00 | 66 | |
| 20260902224511 | 61 | 314 | 7.0 | 9.0 | 0.00 | 0.00 | 0.00 | 65 | |
| 20260902224010 | 61 | 312 | 7.0 | 9.0 | 0.00 | 0.00 | 0.00 | 65 | |
| 20260902223511 | 61 | 309 | 7.0 | 9.0 | 0.00 | 0.00 | 0.00 | 65 | |
| 20260902223010 | 61 | 314 | 9.0 | 11.0 | 0.00 | 0.00 | 0.00 | 65 | |
| 20260902222510 | 61 | 313 | 9.0 | 11.0 | 0.00 | 0.00 | 0.00 | 65 | |
| 20260902222010 | 61 | 311 | 9.0 | 11.0 | 0.00 | 0.00 | 0.00 | 65 | |
| 20260902221510 | 61 | 309 | 9.0 | 11.0 | 0.00 | 0.00 | 0.00 | 64 | |
| 20260902221010 | 61 | 306 | 9.0 | 11.0 | 0.00 | 0.00 | 0.00 | 64 | |
| 20260902220511 | 61 | 305 | 9.0 | 11.0 | 0.00 | 0.00 | 0.00 | 65 | |
| 20260902220011 | 63 | 306 | 9.0 | 9.0 | 0.00 | 0.00 | 0.00 | 64 | |
| 20260902215511 | 63 | 300 | 9.0 | 9.0 | 0.00 | 0.00 | 0.00 | 64 | |
| 20260902215011 | 63 | 296 | 9.0 | 9.0 | 0.00 | 0.00 | 0.00 | 64 | |
| 20260902214509 | 63 | 299 | 7.0 | 9.0 | 0.00 | 0.00 | 0.00 | 63 | |
| 20260902213509 | 63 | 304 | 9.0 | 9.0 | 0.00 | 0.00 | 0.00 | 62 | |
| 20260902213011 | 63 | 306 | 7.0 | 7.0 | 0.00 | 0.00 | 0.00 | 63 | |
| 20260902212510 | 63 | 307 | 7.0 | 7.0 | 0.00 | 0.00 | 0.00 | 63 | |
| 20260902212014 | 63 | 304 | 7.0 | 7.0 | 0.00 | 0.00 | 0.00 | 63 | |
| 20260902211510 | 63 | 314 | 7.0 | 9.0 | 0.00 | 0.00 | 0.00 | 62 | |
| 20260902211011 | 63 | 313 | 7.0 | 9.0 | 0.00 | 0.00 | 0.00 | 61 | |
| 20260902210510 | 64 | 313 | 9.0 | 9.0 | 0.00 | 0.00 | 0.00 | 60 | |
| 20260902210010 | 64 | 317 | 7.0 | 9.0 | 0.00 | 0.00 | 0.00 | 58 | |
| 20260902205511 | 64 | 316 | 7.0 | 9.0 | 0.00 | 0.00 | 0.00 | 58 | |
| 20260902205011 | 64 | 315 | 9.0 | 9.0 | 0.00 | 0.00 | 0.00 | 58 | |
| 20260902204510 | 64 | 316 | 7.0 | 9.0 | 0.00 | 0.00 | 0.00 | 57 | |
| 20260902204011 | 64 | 330 | 9.0 | 9.0 | 0.00 | 0.00 | 0.00 | 58 | |
| 20260902203512 | 64 | 328 | 7.0 | 11.0 | 0.00 | 0.00 | 0.00 | 58 | |
| 20260902203011 | 64 | 328 | 9.0 | 11.0 | 0.00 | 0.00 | 0.00 | 60 | |
| 20260902202511 | 63 | 322 | 9.0 | 11.0 | 0.00 | 0.00 | 0.00 | 62 | |
| 20260902202013 | 63 | 318 | 9.0 | 11.0 | 0.00 | 0.00 | 0.00 | 63 | |
| 20260902201511 | 63 | 310 | 9.0 | 11.0 | 0.00 | 0.00 | 0.00 | 62 | |
| 20260902201010 | 63 | 308 | 9.0 | 9.0 | 0.00 | 0.00 | 0.00 | 61 | |
| 20260902195511 | 64 | 293 | 11.0 | 13.0 | 0.00 | 0.00 | 0.00 | 59 | |
| 20260902195010 | 66 | 289 | 13.0 | 16.0 | 0.00 | 0.00 | 0.00 | 58 | |
| 20260902194511 | 66 | 274 | 11.0 | 13.0 | 0.00 | 0.00 | 0.00 | 58 | |
| 20260902194011 | 66 | 279 | 9.0 | 11.0 | 0.00 | 0.00 | 0.00 | 56 | |
| 20260902193510 | 66 | 275 | 7.0 | 7.0 | 0.00 | 0.00 | 0.00 | 56 | |
| 20260902193010 | 66 | 276 | 4.0 | 7.0 | 0.00 | 0.00 | 0.00 | 55 | |
| 20260902192511 | 66 | 282 | 7.0 | 9.0 | 0.00 | 0.00 | 0.00 | 54 | |
| 20260902192004 | 66 | 298 | 4.0 | 7.0 | 0.00 | 0.00 | 0.00 | 54 | |
| 20260902191511 | 66 | 277 | 4.0 | 7.0 | 0.00 | 0.00 | 0.00 | 54 | |
| 20260902191009 | 66 | 289 | 7.0 | 9.0 | 0.00 | 0.00 | 0.00 | 53 | |
| 20260902190503 | 66 | 286 | 7.0 | 9.0 | 0.00 | 0.00 | 0.00 | 53 | |
| 20260902190003 | 66 | 277 | 4.0 | 7.0 | 0.00 | 0.00 | 0.00 | 54 | |
| 20260902185504 | 68 | 305 | 4.0 | 7.0 | 0.00 | 0.00 | 0.00 | 52 | |
| 20260902185011 | 66 | 305 | 4.0 | 4.0 | 0.00 | 0.00 | 0.00 | 54 | |
| 20260902184510 | 68 | 308 | 4.0 | 7.0 | 0.00 | 0.00 | 0.00 | 54 | |
| 20260902184010 | 68 | 311 | 4.0 | 7.0 | 0.00 | 0.00 | 0.00 | 53 | |
| 20260902183511 | 68 | 317 | 4.0 | 4.0 | 0.00 | 0.00 | 0.00 | 53 | |
| 20260902183010 | 68 | 320 | 7.0 | 7.0 | 0.00 | 0.00 | 0.00 | 53 | |
| 20260902182510 | 68 | 320 | 7.0 | 7.0 | 0.00 | 0.00 | 0.00 | 52 | |
| 20260902182012 | 68 | 317 | 7.0 | 9.0 | 0.00 | 0.00 | 0.00 | 52 | |
| 20260902181011 | 68 | 314 | 7.0 | 9.0 | 0.00 | 0.00 | 0.00 | 51 | |
| 20260902180511 | 68 | 312 | 7.0 | 9.0 | 0.00 | 0.00 | 0.00 | 50 | |
| 20260902180010 | 68 | 299 | 9.0 | 11.0 | 0.00 | 0.00 | 0.00 | 50 | |
| 20260902175510 | 66 | 313 | 7.0 | 9.0 | 0.00 | 0.00 | 0.00 | 51 | |
| 20260902175011 | 66 | 313 | 7.0 | 7.0 | 0.00 | 0.00 | 0.00 | 52 | |
| 20260902174510 | 64 | 342 | 4.0 | 4.0 | 0.00 | 0.00 | 0.00 | 56 | |
| 20260902174010 | 64 | 344 | 9.0 | 11.0 | 0.00 | 0.00 | 0.00 | 59 | |
| 20260902173510 | 64 | 342 | 7.0 | 9.0 | 0.00 | 0.00 | 0.00 | 64 | |
| 20260902173011 | 68 | 318 | 11.0 | 11.0 | 0.00 | 0.00 | 0.00 | 58 | |
| 20260902172510 | 68 | 331 | 7.0 | 7.0 | 0.00 | 0.00 | 0.00 | 52 | |
| 20260902172017 | 68 | 352 | 2.0 | 4.0 | 0.00 | 0.00 | 0.00 | 54 | |
| 20260902171511 | 68 | 317 | 2.0 | 4.0 | 0.00 | 0.00 | 0.00 | 51 | |
| 20260902171011 | 68 | 322 | 7.0 | 7.0 | 0.00 | 0.00 | 0.00 | 49 | |
| 20260902170510 | 68 | 318 | 7.0 | 9.0 | 0.00 | 0.00 | 0.00 | 49 | |
| 20260902170011 | 68 | 318 | 7.0 | 7.0 | 0.00 | 0.00 | 0.00 | 50 | |
| 20260902165511 | 68 | 333 | 7.0 | 7.0 | 0.00 | 0.00 | 0.00 | 50 | |
| 20260902165010 | 68 | 328 | 7.0 | 9.0 | 0.00 | 0.00 | 0.00 | 49 | |
| 20260902164511 | 68 | 328 | 9.0 | 11.0 | 0.00 | 0.00 | 0.00 | 48 | |
| 20260902164009 | 68 | 321 | 7.0 | 7.0 | 0.00 | 0.00 | 0.00 | 50 | |
| 20260902163511 | 68 | 331 | 9.0 | 11.0 | 0.00 | 0.00 | 0.00 | 49 | |
| 20260902163004 | 68 | 311 | 7.0 | 9.0 | 0.00 | 0.00 | 0.00 | 50 | |
| 20260902162510 | 68 | 314 | 7.0 | 9.0 | 0.00 | 0.00 | 0.00 | 46 | |
| 20260902162011 | 68 | 311 | 7.0 | 7.0 | 0.00 | 0.00 | 0.00 | 49 | |
| 20260902161510 | 66 | 331 | 7.0 | 9.0 | 0.00 | 0.00 | 0.00 | 56 | |
| 20260902161009 | 68 | 319 | 13.0 | 16.0 | 0.00 | 0.00 | 0.00 | 59 | |
| 20260902160510 | 70 | 304 | 7.0 | 7.0 | 0.00 | 0.00 | 0.00 | 48 | |
| 20260902160010 | 70 | 305 | 4.0 | 7.0 | 0.00 | 0.00 | 0.00 | 46 | |
| 20260902155511 | 70 | 312 | 2.0 | 4.0 | 0.00 | 0.00 | 0.00 | 47 | |
| 20260902155011 | 72 | 318 | 2.0 | 4.0 | 0.00 | 0.00 | 0.00 | 47 | |
| 20260902154510 | 72 | 317 | 2.0 | 4.0 | 0.00 | 0.00 | 0.00 | 46 | |
| 20260902154011 | 72 | 313 | 4.0 | 7.0 | 0.00 | 0.00 | 0.00 | 46 | |
| 20260902153511 | 72 | 308 | 11.0 | 13.0 | 0.00 | 0.00 | 0.00 | 44 | |
| 20260902153010 | 72 | 310 | 9.0 | 11.0 | 0.00 | 0.00 | 0.00 | 45 | |
| 20260902152511 | 72 | 317 | 7.0 | 9.0 | 0.00 | 0.00 | 0.00 | 46 | |
| 20260902152012 | 72 | 327 | 9.0 | 11.0 | 0.00 | 0.00 | 0.00 | 45 | |
| 20260902151511 | 72 | 284 | 18.0 | 20.0 | 0.00 | 0.00 | 0.00 | 43 | |
| 20260902151011 | 73 | 281 | 9.0 | 11.0 | 0.00 | 0.00 | 0.00 | 41 | |
| 20260902150510 | 73 | 272 | 18.0 | 20.0 | 0.00 | 0.00 | 0.00 | 40 | |
| 20260902150010 | 73 | 280 | 13.0 | 16.0 | 0.00 | 0.00 | 0.00 | 40 | |
| 20260902145510 | 73 | 266 | 18.0 | 20.0 | 0.00 | 0.00 | 0.00 | 40 | |
| 20260902145010 | 72 | 274 | 13.0 | 16.0 | 0.00 | 0.00 | 0.00 | 41 | |
| 20260902144510 | 72 | 280 | 16.0 | 18.0 | 0.00 | 0.00 | 0.00 | 41 | |
| 20260902144009 | 73 | 285 | 16.0 | 18.0 | 0.00 | 0.00 | 0.00 | 41 | |
| 20260902143510 | 73 | 270 | 13.0 | 16.0 | 0.00 | 0.00 | 0.00 | 42 | |
| 20260902143010 | 72 | 279 | 11.0 | 18.0 | 0.00 | 0.00 | 0.00 | 42 | |
| 20260902142511 | 72 | 295 | 13.0 | 16.0 | 0.00 | 0.00 | 0.00 | 42 | |
| 20260902142018 | 72 | 272 | 16.0 | 18.0 | 0.00 | 0.00 | 0.00 | 40 | |
| 20260902141510 | 72 | 266 | 18.0 | 20.0 | 0.00 | 0.00 | 0.00 | 42 | |
| 20260902141011 | 72 | 268 | 13.0 | 16.0 | 0.00 | 0.00 | 0.00 | 41 | |
| 20260902140511 | 72 | 276 | 16.0 | 18.0 | 0.00 | 0.00 | 0.00 | 41 | |
| 20260902140011 | 72 | 275 | 16.0 | 18.0 | 0.00 | 0.00 | 0.00 | 40 | |
| 20260902135510 | 72 | 266 | 22.0 | 22.0 | 0.00 | 0.00 | 0.00 | 40 | |
| 20260902135010 | 72 | 268 | 16.0 | 18.0 | 0.00 | 0.00 | 0.00 | 40 | |
| 20260902134511 | 72 | 290 | 11.0 | 13.0 | 0.00 | 0.00 | 0.00 | 39 | |
| 20260902134010 | 72 | 278 | 18.0 | 20.0 | 0.00 | 0.00 | 0.00 | 38 | |
| 20260902133510 | 73 | 246 | 9.0 | 11.0 | 0.00 | 0.00 | 0.00 | 37 | |
| 20260902133010 | 73 | 246 | 13.0 | 18.0 | 0.00 | 0.00 | 0.00 | 37 | |
| 20260902132510 | 73 | 272 | 13.0 | 16.0 | 0.00 | 0.00 | 0.00 | 36 | |
| 20260902132016 | 73 | 235 | 9.0 | 11.0 | 0.00 | 0.00 | 0.00 | 37 | |
| 20260902131510 | 73 | 211 | 13.0 | 16.0 | 0.00 | 0.00 | 0.00 | 33 | |
| 20260902131010 | 73 | 225 | 13.0 | 20.0 | 0.00 | 0.00 | 0.00 | 32 | |
| 20260902130510 | 73 | 250 | 16.0 | 20.0 | 0.00 | 0.00 | 0.00 | 32 | |
| 20260902130010 | 73 | 266 | 11.0 | 13.0 | 0.00 | 0.00 | 0.00 | 39 | |
| 20260902125510 | 72 | 283 | 16.0 | 20.0 | 0.00 | 0.00 | 0.00 | 38 | |
| 20260902125010 | 73 | 285 | 13.0 | 16.0 | 0.00 | 0.00 | 0.00 | 38 | |
| 20260902124510 | 73 | 273 | 20.0 | 22.0 | 0.00 | 0.00 | 0.00 | 38 | |
| 20260902124011 | 73 | 254 | 11.0 | 13.0 | 0.00 | 0.00 | 0.00 | 39 | |
| 20260902123510 | 73 | 280 | 13.0 | 16.0 | 0.00 | 0.00 | 0.00 | 41 | |
| 20260902123011 | 72 | 281 | 16.0 | 18.0 | 0.00 | 0.00 | 0.00 | 41 | |
| 20260902122510 | 72 | 260 | 13.0 | 16.0 | 0.00 | 0.00 | 0.00 | 41 | |
| 20260902122013 | 72 | 282 | 20.0 | 22.0 | 0.00 | 0.00 | 0.00 | 40 | |
| 20260902121510 | 73 | 264 | 13.0 | 18.0 | 0.00 | 0.00 | 0.00 | 39 | |
| 20260902121011 | 73 | 249 | 7.0 | 7.0 | 0.00 | 0.00 | 0.00 | 42 | |
| 20260902120518 | 72 | 261 | 4.0 | 7.0 | 0.00 | 0.00 | 0.00 | 46 | |
| 20260902120011 | 70 | 292 | 7.0 | 9.0 | 0.00 | 0.00 | 0.00 | 48 | |
| 20260902115510 | 70 | 272 | 9.0 | 11.0 | 0.00 | 0.00 | 0.00 | 47 | |
| 20260902115010 | 70 | 284 | 9.0 | 9.0 | 0.00 | 0.00 | 0.00 | 48 | |
| 20260902114511 | 70 | 279 | 16.0 | 18.0 | 0.00 | 0.00 | 0.00 | 46 | |
| 20260902114011 | 70 | 274 | 7.0 | 11.0 | 0.00 | 0.00 | 0.00 | 47 | |
| 20260902113511 | 73 | 189 | 9.0 | 11.0 | 0.00 | 0.00 | 0.00 | 46 | |
| 20260902113014 | 73 | 226 | 2.0 | 7.0 | 0.00 | 0.00 | 0.00 | 47 | |
| 20260902112510 | 72 | 195 | 4.0 | 4.0 | 0.00 | 0.00 | 0.00 | 48 | |
| 20260902112017 | 72 | 229 | 4.0 | 4.0 | 0.00 | 0.00 | 0.00 | 49 | |
| 20260902111509 | 73 | 258 | 4.0 | 7.0 | 0.00 | 0.00 | 0.00 | 45 | |
| 20260902111011 | 72 | 208 | 7.0 | 9.0 | 0.00 | 0.00 | 0.00 | 48 | |
| 20260902110510 | 73 | 238 | 4.0 | 7.0 | 0.00 | 0.00 | 0.00 | 47 | |
| 20260902110011 | 72 | 185 | 7.0 | 9.0 | 0.00 | 0.00 | 0.00 | 48 | |
| 20260902105510 | 73 | 245 | 4.0 | 7.0 | 0.00 | 0.00 | 0.00 | 46 | |
| 20260902105010 | 72 | 257 | 4.0 | 7.0 | 0.00 | 0.00 | 0.00 | 49 | |
| 20260902104509 | 72 | 269 | 7.0 | 9.0 | 0.00 | 0.00 | 0.00 | 48 | |
| 20260902104010 | 73 | 245 | 7.0 | 11.0 | 0.00 | 0.00 | 0.00 | 50 | |
| 20260902103510 | 72 | 173 | 7.0 | 9.0 | 0.00 | 0.00 | 0.00 | 52 | |
| 20260902103011 | 72 | 159 | 2.0 | 4.0 | 0.00 | 0.00 | 0.00 | 52 | |
| 20260902102511 | 70 | 207 | 7.0 | 7.0 | 0.00 | 0.00 | 0.00 | 54 | |
| 20260902102011 | 72 | 196 | 4.0 | 7.0 | 0.00 | 0.00 | 0.00 | 50 | |
| 20260902101511 | 70 | 198 | 7.0 | 7.0 | 0.00 | 0.00 | 0.00 | 51 | |
| 20260902101010 | 72 | 191 | 4.0 | 7.0 | 0.00 | 0.00 | 0.00 | 51 | |
| 20260902100518 | 72 | 200 | 4.0 | 7.0 | 0.00 | 0.00 | 0.00 | 52 | |
| 20260902100011 | 73 | 206 | 2.0 | 7.0 | 0.00 | 0.00 | 0.00 | 48 | |
| 20260902095510 | 72 | 194 | 4.0 | 7.0 | 0.00 | 0.00 | 0.00 | 53 | |
| 20260902095010 | 72 | 222 | 2.0 | 2.0 | 0.00 | 0.00 | 0.00 | 55 | |
| 20260902094510 | 72 | 207 | 2.0 | 4.0 | 0.00 | 0.00 | 0.00 | 54 | |
| 20260902094004 | 70 | 235 | 4.0 | 4.0 | 0.00 | 0.00 | 0.00 | 55 | |
| 20260902093511 | 72 | 202 | 4.0 | 4.0 | 0.00 | 0.00 | 0.00 | 50 | |
| 20260902093011 | 72 | 214 | 4.0 | 7.0 | 0.00 | 0.00 | 0.00 | 51 | |
| 20260902092511 | 70 | 155 | 2.0 | 4.0 | 0.00 | 0.00 | 0.00 | 56 | |
| 20260902092020 | 72 | 230 | 2.0 | 4.0 | 0.00 | 0.00 | 0.00 | 54 | |
| 20260902091510 | 70 | 194 | 2.0 | 2.0 | 0.00 | 0.00 | 0.00 | 57 | |
| 20260902091010 | 68 | 270 | 2.0 | 2.0 | 0.00 | 0.00 | 0.00 | 60 | |
| 20260902090510 | 68 | 275 | 2.0 | 2.0 | 0.00 | 0.00 | 0.00 | 59 | |
| 20260902090011 | 68 | 257 | 2.0 | 4.0 | 0.00 | 0.00 | 0.00 | 59 | |
| 20260902085510 | 68 | 276 | 2.0 | 4.0 | 0.00 | 0.00 | 0.00 | 57 |